Theta_e
287 288 288 288 289 289 290 291 292 292 293 294 296 295 295 295 296 296 296 295 295 295 294 294 293 294 295 297 299 300 300 300 298 300 303 302 301 300 300 300 298 298 297
285 286 285 286 286 286 286 287 288 288 289 291 292 292 291 291 291 291 291 291 291 291 292 292 290 291 292 293 294 294 295 295 294 293 296 297 296 296 296 295 295 295 295
284 284 283 283 283 283 284 285 285 286 287 288 289 289 288 287 287 288 288 289 289 288 288 287 287 288 288 289 290 290 290 290 292 291 291 293 294 294 293 293 293 293 292
283 282 282 282 282 282 283 283 284 285 285 286 287 287 287 286 285 285 286 287 287 286 286 286 285 285 285 286 287 287 287 287 288 288 288 288 288 289 289 288 287 289 289
281 281 280 281 281 282 282 282 282 283 283 285 285 285 285 285 284 283 283 284 284 284 284 284 283 283 283 284 284 284 284 284 284 284 284 284 284 284 283 285 284 285 286
280 279 280 280 280 280 280 281 281 281 282 282 282 283 283 283 284 283 282 283 282 282 282 282 283 282 282 282 283 283 283 282 281 281 281 280 280 281 282 282 282 281 280
278 277 278 278 278 278 279 279 279 280 281 280 280 281 280 281 282 281 280 282 281 281 280 280 280 279 281 281 281 281 281 281 281 280 278 278 277 278 279 278 279 279 279
275 274 275 276 275 276 276 276 277 277 278 278 278 278 277 279 280 280 279 280 280 279 279 278 278 278 280 280 279 279 278 278 278 278 278 277 277 278 278 278 278 279 280
272 272 273 274 273 274 273 274 275 275 276 276 276 275 275 277 279 279 278 278 277 277 278 277 277 278 279 280 278 276 275 276 278 278 278 277 278 278 278 277 276 275 274
270 270 271 272 272 272 272 272 273 274 273 274 274 274 274 274 277 279 278 277 276 276 277 276 276 278 279 279 276 275 274 275 276 275 275 275 276 276 276 276 275 272 272
269 269 269 270 270 271 271 271 272 272 272 272 272 272 273 273 274 277 278 277 276 275 275 275 276 278 278 277 277 275 275 276 274 273 273 273 274 274 274 275 274 272 270
268 268 268 269 270 270 270 270 270 271 270 270 271 271 272 272 272 274 276 277 276 275 274 275 277 277 276 276 275 275 276 274 272 271 271 271 271 272 272 272 272 271 272
266 265 266 267 268 269 269 268 269 269 269 269 270 270 270 271 272 273 273 276 275 275 275 276 276 275 274 273 273 273 272 271 271 270 270 270 271 271 270 270 271 271 270
264 265 265 266 266 266 268 268 269 268 268 269 269 269 270 270 271 272 275 276 275 275 276 275 273 273 272 271 270 271 271 271 269 268 269 269 270 269 269 269 268 268 267
265 265 266 266 266 265 266 267 267 268 269 269 269 270 269 269 271 273 274 274 274 276 272 271 270 270 269 269 270 270 270 270 268 269 268 268 268 268 267 268 267 266 265
265 265 265 265 265 265 265 265 265 267 268 269 269 269 270 271 272 273 274 274 274 275 270 268 267 267 267 267 267 268 268 267 268 268 267 267 266 266 266 266 266 265 264
264 264 264 264 264 264 264 264 263 265 265 266 267 268 269 270 271 271 272 273 273 271 266 265 265 265 265 266 266 266 266 267 266 266 266 266 265 265 264 264 264 264 264
262 260 263 264 263 263 263 263 262 262 262 263 264 265 267 268 269 270 271 270 266 266 264 263 263 263 264 264 265 265 265 265 265 265 265 265 264 264 264 263 264 263 263
262 263 263 263 262 261 262 262 261 261 261 261 262 264 264 265 266 268 268 264 262 262 263 262 262 262 262 263 263 263 263 263 264 263 263 263 264 264 263 263 263 262 262
260 259 260 262 261 261 261 261 261 261 261 261 261 262 261 261 263 265 264 262 261 261 261 261 261 261 261 261 261 262 262 263 263 264 264 264 264 264 263 263 263 263 263
261 261 259 260 260 260 260 260 261 260 260 260 261 262 264 264 264 263 261 261 260 260 260 260 260 260 260 261 261 261 261 262 263 263 263 264 264 263 264 264 264 264 263
261 261 260 259 260 259 259 260 260 260 260 260 261 261 264 261 261 261 261 261 261 260 260 259 259 260 260 260 260 260 260 260 261 262 263 263 263 264 264 264 264 264 264
260 260 259 259 259 258 258 259 259 260 260 260 260 260 260 260 260 260 260 260 260 259 260 259 259 258 259 260 260 260 260 260 261 262 261 261 262 263 263 263 264 263 264
260 260 260 260 260 260 260 260 260 258 258 259 260 260 260 260 260 260 259 259 259 259 259 258 258 257 258 258 259 260 260 260 261 261 261 261 261 262 262 263 263 263 263
259 259 259 260 260 260 260 259 260 260 261 261 261 260 260 260 259 259 260 259 258 258 258 258 257 257 257 257 257 258 258 259 258 259 259 259 260 261 262 263 264 265 266
259 259 259 259 259 259 259 259 260 261 261 261 261 261 260 260 260 259 259 258 257 257 257 257 257 257 257 257 257 258 258 261 261 261 263 265 266 267 268 269 270 271 270
Wind_Speed
13 13 13 12 12 12 11 10 10 10 10 10 10 10 10 10 10 8 8 8 8 7 8 7 7 7 4 4 4 4 4 4 7 7 6 8 11 12 12 11 11 12 10
12 13 13 12 12 13 12 11 10 10 10 10 10 11 10 10 10 10 9 8 9 9 8 8 9 6 8 8 5 7 6 6 7 10 9 7 10 12 12 14 12 10 12
12 12 12 13 12 12 12 11 11 10 11 11 11 11 11 11 10 9 8 8 9 9 9 9 9 9 8 7 7 7 7 7 7 8 9 8 9 10 11 11 12 12 11
11 12 12 11 11 11 10 11 10 10 10 10 10 10 10 10 10 9 9 8 8 9 8 9 10 10 9 9 7 8 8 7 7 7 8 9 8 10 9 11 12 9 11
10 11 11 9 9 10 10 10 10 10 9 9 9 9 9 10 9 9 8 8 8 7 8 8 10 9 13 12 7 9 9 7 7 7 8 9 9 10 12 10 12 12 12
9 9 9 9 9 9 9 8 8 8 8 8 8 9 9 8 13 13 8 6 7 6 6 6 6 8 9 10 10 11 9 9 9 8 8 9 12 11 11 11 12 12 11
8 8 8 8 8 8 8 8 8 7 7 8 7 7 9 9 13 12 9 5 5 6 7 6 6 6 8 9 10 10 9 11 11 10 10 10 13 13 14 14 13 13 13
8 8 8 7 7 7 7 7 7 6 6 6 6 6 6 8 12 12 9 6 6 7 7 7 7 6 9 10 9 8 9 8 8 8 9 11 12 13 13 13 15 15 12
7 6 6 6 6 7 7 7 6 5 5 5 6 7 6 7 11 12 7 5 5 5 4 6 6 7 12 14 9 8 8 7 9 11 13 15 16 17 14 10 9 11 12
5 5 5 5 6 6 6 6 6 5 5 4 5 5 6 5 10 11 7 4 4 4 3 5 6 9 12 13 10 8 8 10 11 11 10 10 12 11 14 10 10 9 11
4 4 5 4 5 5 5 4 4 4 5 5 5 5 5 5 6 10 9 4 4 3 4 4 4 11 13 14 14 7 10 12 11 8 8 8 8 9 8 8 10 10 10
4 4 4 4 3 4 4 4 4 4 4 4 3 3 3 4 5 7 9 8 8 5 5 4 6 12 14 14 10 13 14 12 6 7 7 8 8 8 8 10 12 11 10
4 4 4 4 4 3 4 3 3 3 3 3 3 2 3 3 4 7 8 9 8 7 5 8 9 13 13 10 11 13 9 5 6 7 7 8 8 9 11 10 10 11 12
5 5 4 3 3 3 2 2 2 2 2 3 3 3 4 4 4 5 5 5 7 8 8 3 7 11 9 8 7 6 5 5 6 7 8 9 9 9 9 9 10 10 10
4 4 4 3 2 2 1 1 0 1 1 4 4 4 5 5 4 11 10 7 7 10 1 3 5 6 6 5 5 6 6 6 7 7 8 9 9 9 9 9 9 9 11
5 4 3 2 2 1 1 1 1 3 4 5 6 6 6 11 14 14 14 14 15 12 3 5 7 6 6 6 6 7 7 7 7 8 9 9 10 10 10 10 10 10 10
4 4 3 2 2 2 1 1 2 2 4 5 6 10 11 11 13 13 14 15 11 9 4 5 7 7 7 7 7 7 8 8 8 8 9 10 10 9 11 10 10 10 10
3 2 3 2 1 1 1 1 2 2 4 4 5 9 10 12 13 13 12 9 5 3 4 6 7 7 7 8 7 8 8 8 8 9 10 9 9 10 10 10 10 11 11
4 3 3 2 2 2 2 3 3 3 4 5 6 5 5 12 12 10 8 3 6 6 5 6 7 7 8 8 8 8 9 9 9 9 9 9 9 9 10 11 11 15 15
4 4 3 3 3 3 3 4 4 4 4 5 5 6 5 5 6 6 5 5 6 6 7 8 8 8 8 8 9 9 9 10 9 9 9 9 10 10 11 12 11 12 12
4 4 4 3 4 4 4 5 4 5 5 5 6 6 11 9 8 7 7 6 6 6 7 8 8 9 8 8 9 9 9 10 9 9 9 10 10 11 11 12 12 13 13
4 4 4 5 4 5 5 5 6 6 6 7 7 7 12 7 7 7 7 7 7 7 7 8 9 9 8 8 9 9 10 10 10 9 11 11 11 12 12 13 13 13 13
6 6 6 6 6 6 6 7 6 6 7 7 8 7 6 6 7 8 8 8 8 8 7 8 9 8 8 8 9 9 10 11 10 10 12 12 12 12 12 13 13 14 13
8 8 8 7 6 7 7 7 7 8 9 9 8 8 7 7 8 9 9 9 8 8 8 7 8 11 10 10 9 9 10 11 10 12 15 13 14 15 13 14 15 18 16
8 8 8 8 7 7 7 8 8 8 9 8 8 8 8 8 9 9 9 8 8 8 9 8 8 11 14 15 15 17 17 20 18 18 12 15 18 21 18 16 18 17 20
9 10 9 8 8 8 8 8 9 9 9 8 8 9 9 9 9 9 8 8 8 8 10 8 11 15 16 14 17 18 19 20 19 21 14 14 15 15 15 18 21 15 18
Wind_Direction
61 64 66 63 63 63 62 57 57 58 55 59 60 60 56 49 40 46 52 42 49 43 36 38 34 18 12 6 349 349 338 333 291 304 311 315 321 325 326 329 329 327 320
63 65 62 62 62 60 56 52 50 54 52 56 63 64 58 52 46 46 47 43 43 44 37 38 31 19 22 13 360 2 353 340 316 304 316 316 324 329 325 327 323 326 323
62 65 64 60 59 59 55 50 47 49 51 53 57 60 56 48 45 45 51 55 56 53 47 45 34 27 26 12 12 8 5 340 329 318 315 323 321 332 326 319 322 322 317
65 66 64 59 59 58 57 54 52 51 55 59 59 61 56 52 44 40 41 49 59 55 51 51 40 34 25 13 17 9 357 346 337 326 322 321 330 337 327 327 324 323 319
65 67 66 63 61 61 58 56 54 54 54 57 64 61 56 50 38 33 38 44 49 55 55 52 49 36 32 28 14 8 359 349 341 335 327 327 333 338 336 332 314 316 317
64 63 60 63 61 59 59 59 60 58 57 57 60 58 55 47 31 33 26 50 52 47 49 42 46 35 16 15 19 13 11 357 348 340 335 334 337 331 329 323 316 319 322
70 62 56 56 59 55 55 57 55 54 60 55 54 57 53 43 29 29 20 49 49 51 44 31 38 26 7 3 5 0 13 2 5 345 339 336 328 330 327 320 318 312 305
65 57 50 53 56 55 56 55 56 56 56 57 59 58 58 40 26 25 20 38 47 39 33 29 23 16 14 2 360 4 357 352 0 350 340 330 324 323 321 317 314 305 303
66 62 53 54 57 51 49 42 34 45 50 62 52 50 50 36 25 30 20 30 33 29 43 33 15 0 8 4 359 354 345 342 340 340 326 317 317 320 321 315 316 318 315
76 68 58 60 65 66 54 49 38 38 39 32 50 52 53 41 18 18 33 15 17 7 11 12 4 336 1 359 349 346 336 337 336 332 326 323 325 323 324 323 323 318 318
90 86 76 69 77 70 76 64 64 68 69 53 48 36 34 29 17 12 5 22 7 342 343 345 329 337 349 345 345 336 333 329 330 323 322 321 322 322 321 323 319 314 306
103 92 80 70 73 77 84 77 68 73 82 72 57 33 13 3 352 355 345 1 352 336 329 322 315 339 335 331 333 329 329 336 324 320 316 313 315 315 313 316 308 296 291
125 109 103 92 81 80 90 85 80 62 52 37 12 353 337 336 330 331 329 320 336 323 317 305 328 317 318 316 316 322 330 315 312 314 313 308 312 312 309 303 297 293 286
149 145 136 128 118 96 98 81 89 74 52 20 346 334 327 319 313 313 310 322 316 309 303 299 302 302 300 296 298 304 308 316 317 304 304 306 308 304 303 304 302 305 298
161 151 145 125 116 94 72 89 41 40 309 333 326 317 314 304 303 305 305 316 311 304 133 301 310 302 302 298 297 303 307 316 314 306 304 304 301 300 297 301 296 295 288
167 166 139 143 130 97 19 358 7 296 330 313 315 310 306 296 299 298 308 307 304 320 324 316 300 299 294 305 307 305 311 304 304 309 305 302 300 299 299 300 294 288 289
175 159 147 173 151 113 91 357 340 336 322 293 306 320 311 302 308 310 307 300 310 315 298 291 287 292 299 298 292 291 295 298 306 294 298 295 293 293 296 293 292 289 286
162 138 165 160 130 212 243 296 308 316 317 310 307 304 309 312 309 312 306 326 303 293 283 280 284 289 287 285 289 291 293 296 295 295 294 292 289 289 291 286 287 287 287
181 183 179 176 207 242 255 250 257 264 278 290 309 297 302 317 314 308 323 315 302 295 295 288 283 283 284 286 284 285 285 285 291 293 287 283 281 283 280 279 280 282 282
204 194 204 207 211 234 245 256 262 263 268 265 270 280 309 310 310 311 304 291 283 281 285 284 285 280 277 276 278 279 282 283 285 285 284 282 281 279 280 282 280 282 280
202 193 218 225 230 237 247 253 265 269 268 272 279 282 280 284 298 292 289 280 274 273 274 272 274 271 269 271 272 276 276 281 284 285 285 285 284 282 278 277 277 276 276
212 212 214 229 235 237 243 250 254 260 271 279 284 282 287 287 276 276 277 274 270 265 264 267 272 271 271 271 274 277 280 281 285 285 284 286 286 283 282 280 278 276 276
213 217 226 232 235 241 244 242 248 253 262 266 273 276 271 266 265 268 273 275 272 267 264 263 269 270 270 268 266 266 269 270 275 283 285 286 285 283 283 282 280 278 275
213 219 228 233 233 235 243 250 250 247 257 262 265 269 273 272 266 264 262 266 266 269 268 262 258 264 274 271 270 265 262 265 270 273 279 281 281 283 280 278 276 274 272
215 222 228 234 238 242 249 248 253 255 255 258 264 265 266 264 263 261 261 260 260 267 266 265 261 264 267 269 266 268 269 273 270 271 274 268 267 272 270 271 271 270 265
221 226 231 232 234 237 242 250 252 254 258 261 260 259 261 262 261 263 262 256 256 257 262 263 264 266 270 274 273 272 273 275 278 278 271 270 274 276 278 283 285 293 295